Preview of NWS' New Version of Forecast
This preview is not operational and should not be used for support decisions.

Regional Weather Roundup (RWR)

Issued by Philadelphia/Mt Holly (PHI)

                            
000
ASUS41 KPHI 171912
RWRPHI

REGIONAL WEATHER ROUNDUP
NATIONAL WEATHER SERVICE MOUNT HOLLY NJ
300 PM EDT TUE SEP 17 2019

NOTE:  "FAIR" INDICATES FEW OR NO CLOUDS BELOW 12,000 FEET WITH NO
SIGNIFICANT WEATHER AND/OR OBSTRUCTIONS TO VISIBILITY.

 * = STATION DOES NOT REPORT PRECIPITATION (E.G. RAIN, SNOW, ETC.) 
        OR FOG.

NJZ015>026-172000-
SOUTHERN NEW JERSEY
  
CITY           SKY/WX    TMP DP  RH WIND       PRES   REMARKS
POMONA         FAIR      75  51  43 E9G18     30.10F                  
WILDWOOD*      FAIR      73  52  47 E15G22    30.11F                  
MILLVILLE      FAIR      79  49  34 VRB5      30.09F                  
WRIGHTSTOWN    FAIR      78  45  30 N10       30.10F                  
MOUNT HOLLY    FAIR      78  48  34 N8        30.10F                  
TRENTON        FAIR      77  47  34 N10       30.10F                  

$$
NJZ001>014-172000-
NORTHERN NEW JERSEY
  
CITY           SKY/WX    TMP DP  RH WIND       PRES   REMARKS
SUSSEX         FAIR      75  45  34 SE3       30.11F                  
ANDOVER*         N/A     75  48  38 VRB5      30.12F                  
MORRISTOWN     SUNNY     75  45  33 E8G18     30.12F                  
NEWARK         FAIR      77  41  27 NE9       30.10F                  
TETERBORO      FAIR      77  39  25 NE12      30.09F                  
CALDWELL       FAIR      77  41  27 VRB6      30.12F                  
SOMERVILLE     FAIR      79  40  24 NE5       30.09F                  
ALLAIRE*       FAIR      76  45  33 NW13      30.12F                  
TOMS RIVER*    FAIR      76  50  40 SE7       30.11F                  

$$
PAZ043-044-047-054-055-060>062-066>071-172000-
EASTERN PENNSYLVANIA
  
CITY           SKY/WX    TMP DP  RH WIND       PRES   REMARKS
PHILADELPHIA   FAIR      79  45  29 NE8       30.10F                  
NORTH PHILA    FAIR      80  47  31 N10       30.11F                  
BLUE BELL*     FAIR      77  49  37 N7        30.12F                  
DOYLESTOWN     FAIR      80  48  32 VRB6      30.11F                  
QUAKERTOWN*    SUNNY     75  48  38 NE6       30.13                   
PERKASIE*      FAIR      75  46  35 NE8       30.13F                  
POTTSTOWN      FAIR      76  48  37 N10       30.13F                  
LANCASTER      FAIR      79  49  34 E8        30.12F                  
COATESVILLE    FAIR      75  52  43 CALM      30.13F                  
WEST CHESTER   FAIR      77  45  31 NE6       30.12F                  
READING        FAIR      76  50  40 VRB3      30.11F                  
ALLENTOWN      FAIR      78  46  32 N5        30.12F                  
QN CITY/ALNTWN FAIR      77  50  38 N6        30.13F                  
MOUNT POCONO   FAIR      70  40  33 NW10      30.16F                  
HAZLETON       FAIR      70  45  40 NW7       30.19F                  
LEHIGHTON      FAIR      77  39  25 N8        30.13F                  
WILKES BARRE   FAIR      77  44  30 N9        30.14F                  

$$
DEZALL-MDZ008-012-015-019-020-172000-
DELAWARE AND EASTERN MARYLAND
  
CITY           SKY/WX    TMP DP  RH WIND       PRES   REMARKS
WILMINGTON     FAIR      79  51  37 E8        30.10F                  
DOVER          MOSUNNY   77  57  49 E7        30.09F                  
CHESWOLD       PTCLDY    77  57  50 VRB7G14   30.09F                  
GEORGETOWN     FAIR      75  56  51 NE13      30.10F                  
EASTON         PTSUNNY   81  61  50 NE12      30.13F                  
STEVENSVILLE   CLOUDY    77  61  57 N8        30.09F                  
ABERDEEN       MOSUNNY   81  55  41 VRB5      30.09F                  
PATUXENT       PTSUNNY   78  59  51 VRB6      30.07                   
OCEAN CITY     FAIR      73  59  61 NE16G23   30.09F                  
WALLOPS ISLAND FAIR      75  61  61 NE22G28   30.07F                  
CAMBRIDGE      CLOUDY    77  59  53 NE6G13    30.08F                  
SALISBURY      PTSUNNY   75  58  55 E12       30.08F                  

$$
PAZ001-021-NYZ056-072-MDZ011-DCZ001-172000-
OTHER NEARBY LOCATIONS
  
CITY           SKY/WX    TMP DP  RH WIND       PRES   REMARKS
HARRISBURG     FAIR      79  49  34 NE5       30.11F                  
STATE COLLEGE  SUNNY     73  46  38 NE6       30.17F                  
WILLIAMSPORT   FAIR      78  42  27 NW9       30.13F                  
BINGHAMTON     FAIR      69  45  41 N13       30.18F                  
NEW YORK CITY  FAIR      75  42  30 NE9       30.13F                  
BALTIMORE      FAIR      81  57  43 E8        30.09F                  
WASHINGTON DC  PTSUNNY   80  60  50 NE10      30.09F                  

$$